Flag for U.S.A. Weather past 2 weeks in Asheville, North Carolina, U.S.A.

Now
70 °F

Sunny.


Feels Like: 73 °F
Forecast: 44 / 69 °F
Wind: 6 mph from Northeast

Location: Asheville Regional Airport


UV Index: 7 (High)

Visibility: 10 mi


Pressure: 30.16 "Hg

Humidity: 14%

Dew point: 19 °F

Location of AshevilleLocation

Historic Weather in Asheville

°F

Asheville temperature yesterday

Maximum temperature yesterday: 54 °F (at 12:54 PM)
Minimum temperature yesterday: 46 °F (at 3:54 AM)
Average temperature yesterday: 49 °F

Past Weeks' High & Low Weather Summary

 TemperatureHumidityPressure
High77 °F (Apr 13, 2:54 PM)100% (Apr 7, 7:58 AM)30.49 "Hg (Apr 7, 7:58 AM)
Low30 °F (Apr 16, 4:54 AM)14% (Apr 20, 5:54 PM)29.64 "Hg (Apr 8, 3:54 AM)
Average52 °F66%30.07 "Hg
* Reported Apr 5 5:54 PM — Apr 20 5:54 PM, Asheville, Weather by CustomWeather, © 2014

Note: Actual official high and low records may vary slightly from our data, if they occured in-between our weather recording intervals... More about our weather records

Advertising

Historic Weather Conditions — Data for Previous 24 hours

 ConditionsComfort  
Time TempWeatherWind HumidityBarometerVisibility
5:54 PM
Apr 20
70 °FSunny.6 mph14%30.16 "Hg10 mi
4:54 PM70 °FSunny.5 mph16%30.16 "Hg10 mi
3:54 PM69 °FSunny.5 mph22%30.17 "Hg10 mi
2:54 PM67 °FSunny.6 mph32%30.19 "Hg10 mi
1:54 PM64 °FSunny.N/A34%30.22 "Hg10 mi
12:54 PM62 °FSunny.6 mph34%30.24 "Hg10 mi
11:54 AM61 °FSunny.6 mph35%30.26 "Hg10 mi
10:54 AM58 °FSunny.9 mph41%30.28 "Hg10 mi
9:54 AM57 °FSunny.8 mph46%30.27 "Hg10 mi
8:54 AM53 °FSunny.No wind59%30.28 "Hg10 mi
7:54 AM44 °FSunny.No wind93%30.27 "Hg7 mi
6:54 AM42 °FClear.No wind96%30.25 "Hg7 mi
5:54 AM43 °FClear.No wind97%30.23 "Hg8 mi
4:54 AM44 °FClear.No wind93%30.21 "Hg8 mi
3:54 AM44 °FPassing clouds.No wind96%30.20 "Hg7 mi
2:54 AM45 °FPassing clouds.No wind97%30.20 "Hg8 mi
1:54 AM46 °FPassing clouds.5 mph96%30.21 "Hg10 mi
12:54 AM48 °FPassing clouds.No wind89%30.22 "Hg10 mi
11:54 PM
Apr 19
47 °FLight rain. Mostly cloudy.3 mph97%30.22 "Hg10 mi
10:54 PM47 °FLight rain. Overcast.3 mph97%30.23 "Hg9 mi
9:54 PM47 °FRain. Fog.No wind93%30.24 "Hg6 mi
8:54 PM47 °FLight rain. Overcast.5 mph93%30.24 "Hg10 mi
7:54 PM48 °FRain. Fog.3 mph93%30.23 "Hg5 mi
Weather by CustomWeather, © 2014

See weather overview